COSMOS 1035

Satellite information

Favourite Embed

Satellite Type and Status

PAYLOADIN ORBIT

Key statistics

Satellite COSMOS 1035 at a glance.

Uptime

17193

Days in orbit

Revolutions

≈ 12.6

Per day

Orbit

LEO

Low Earth Orbit

Inclination

74.0

Latest

Satellite identification and parameters

Extended collection of information and parameters for COSMOS 1035.

Object identification

Identified? True

Debris? False

Object name: COSMOS 1035

International designator: 1978-091B

Object number (NORAD): 11044

Object ID (CCSDS): 11044

Country: COMMONWEALTH OF INDEPENDENT STATES (CIS)

Current information (Y/N): Y

RCS size: MEDIUM

Orbital parameters

Period: 114.677 minutes

Inclination: 74.0384 deg

SMA: 7818.873 km

Apoapsis: 1479.614 km

Periapsis: 1401.862 km

RAAN: 40.2419 deg

Eccentricy: 0.00497202

Argument of periapsis: 252.8745 deg

Mean anomaly: 262.0391 deg

Mean motion: 12.55701835 rev/day

Mean motion (dot): -0.00000004 rev/day2

B* drag term: 0.00007669801 1/REarth

Two-line elements (TLE)

Creation date: Oct. 30, 2025, 3:32 a.m.

Reference frame: TEME

Reference center: EARTH

Epoch: Oct. 29, 2025, 5:45 p.m. UTC

TLE line 0: 0 COSMOS 1035

TLE line 1: 1 11044U 78091B 25302.74020729 -.00000004 00000-0 76698-4 0 9993

TLE line 2: 2 11044 74.0384 40.2419 0049720 252.8745 262.0391 12.55701835157691

Live tracking on map

Real-time ground track for satellite COSMOS 1035.

In-orbit conjunctions

There are no conjunctions computed for COSMOS 1035, at the moment. Check back to stay up to date, as we update our databases every day.

Go to all conjunctions

Associated space launch

Military communications satellites

COSMOS 1035 was lifted into orbit during the mission ‘Kosmos-3M | Strela-1M 153-160’, on board a Kosmos-3M space rocket.

The launch took place on Oct. 4, 1978, 3:49 a.m. from 132/1 (132L).

For more information about the launch, click the button.

Launch to space Kosmos-3M | Strela-1M 153-160
Kosmos-3M | Strela-1M 153-160

Agency: N/A

Status: Launch Successful

Launch date: Oct. 4, 1978, 3:49 a.m. UTC

Rocket: Kosmos-3M

Launch pad: 132/1 (132L)

Location: Plesetsk Cosmodrome, Russian Federation

...

Latest news about this satellite

There are no fresh news available about this satellite. Check back as we update our databases every day.


Newsletter sign-up

Weekly statistics, charts and insights to help you stay on top of the space industry.